This demonstration page uses our WeatherBlox Daily Observations layout. Learn more.

Left ArrowRight Arrow

Hourly Observations for December 4, 2021

Temp ( °F °C ) Dew Point ( °F °C ) Humidity (%) Winds ( mph kmh ) Pressure ( in mb ) Visibility ( mi km ) Precip ( " mm )
12:15 am 00:15 Clear 32 -0.2 27 -3 82 82 NNE 7 11 30.33 1027 10 16 N/A
12:35 am 00:35 Clear 32 undefined 28 -2 87 87 N 5 7 30.33 1027 10 16 N/A
12:55 am 00:55 Clear 31 -0.7 27 -2.7 87 87 N N/A 30.34 1028 10 16 N/A
1:15 am 01:15 Clear 30 -0.9 27 -3 86 86 W 3 6 30.34 1028 10 16 N/A
1:35 am 01:35 Clear 30 -0.9 26 -3.3 84 84 N N/A 30.34 1028 10 16 N/A
1:55 am 01:55 Clear 30 -1.1 26 -3.1 86 86 N N/A 30.34 1027 10 16 N/A
2:15 am 02:15 Clear 28 -2.5 25 -4.1 89 89 NW 5 7 30.36 1028 10 16 N/A
2:35 am 02:35 Clear 28 -2.3 25 -4.1 88 88 N N/A 30.36 1028 10 16 N/A
2:55 am 02:55 Clear 26 -3.5 23 -5.2 88 88 NW 3 6 30.38 1029 10 16 N/A
3:15 am 03:15 Clear 28 -2.3 25 -3.8 90 90 NNW 5 7 30.37 1028 10 16 N/A
3:35 am 03:35 Clear 26 -3.5 23 -5.1 89 89 N N/A 30.38 1029 10 16 N/A
3:55 am 03:55 Clear 27 -2.8 25 -4.1 91 91 N 3 6 30.37 1029 10 16 N/A
4:15 am 04:15 Clear 28 -2.1 26 -3.3 92 92 N 3 6 30.37 1028 10 16 N/A
4:35 am 04:35 Clear 28 -2.4 26 -3.5 92 92 NNE 5 7 30.37 1028 10 16 N/A
4:55 am 04:55 Clear 27 -2.8 25 -3.9 92 92 N N/A 30.37 1029 10 16 N/A
5:15 am 05:15 Clear 25 -3.8 23 -5 91 91 N N/A 30.37 1029 10 16 N/A
5:35 am 05:35 Clear 25 -4.1 22 -5.4 91 91 NE 6 9 30.39 1029 10 16 N/A
5:55 am 05:55 Clear 26 -3.5 24 -4.3 94 94 NE 7 11 30.38 1029 10 16 N/A
6:15 am 06:15 Partly Cloudy 26 -3.1 25 -4 94 94 NE 6 9 30.40 1029 10 16 N/A
6:35 am 06:35 Cloudy 31 -0.3 30 -0.9 96 96 NE 9 15 30.37 1028 10 16 N/A
6:55 am 06:55 Cloudy 33 0.3 31 -0.3 96 96 ENE 9 15 30.36 1028 10 16 N/A
7:15 am 07:15 Cloudy with Mist and Fog 33 0.5 32 undefined 96 96 ENE 9 15 30.37 1028 5 8 N/A
7:35 am 07:35 Cloudy with Mist and Fog 33 0.8 32 0.1 95 95 E 8 13 30.37 1028 3 5 N/A
7:55 am 07:55 Cloudy with Mist and Fog 34 1 33 0.5 97 97 E 12 19 30.36 1028 1 1 N/A
8:15 am 08:15 Cloudy with Fog 34 1 33 0.5 97 97 E 10 17 30.36 1028 1 1 N/A
8:35 am 08:35 Cloudy with Fog 34 1 33 0.5 97 97 E 13 20 30.36 1028 0 0 N/A
8:55 am 08:55 Cloudy with Fog 34 1 33 0.6 97 97 E 12 19 30.36 1028 0 0 N/A
9:15 am 09:15 Cloudy with Fog 34 1.1 33 0.7 97 97 E 13 20 30.38 1029 0 0 N/A
9:35 am 09:35 Cloudy with Fog 34 1.1 33 0.7 97 97 E 12 19 30.38 1029 1 1 N/A
9:55 am 09:55 Cloudy with Fog 34 1 33 0.7 98 98 ESE 13 20 30.36 1028 0 0 N/A
10:15 am 10:15 Cloudy with Fog 34 1 33 0.7 98 98 E 13 20 30.36 1028 1 1 N/A
10:35 am 10:35 Cloudy with Mist and Fog 34 1.1 33 0.8 98 98 ESE 13 20 30.37 1028 1 2 N/A
10:55 am 10:55 Cloudy with Mist and Fog 35 1.4 34 1.1 98 98 SE 12 19 30.36 1028 2 3 N/A
11:15 am 11:15 Cloudy with Mist and Fog 35 1.8 35 1.5 98 98 SE 10 17 30.35 1028 2 3 N/A
11:35 am 11:35 Cloudy 36 2 35 1.5 97 97 SE 9 15 30.35 1028 7 11 N/A
11:55 am 11:55 Cloudy 36 2.4 34 1.3 93 93 SSE 12 19 30.32 1027 7 11 N/A
12:15 pm 12:15 Mostly Cloudy 38 3.1 34 1 86 86 ESE 5 7 30.33 1027 10 16 N/A
12:35 pm 12:35 Mostly Cloudy 38 3.6 34 0.9 83 83 SE 9 15 30.29 1026 10 16 N/A
12:55 pm 12:55 Partly Cloudy 41 5 33 0.8 75 75 S 17 28 30.22 1023 10 16 N/A
1:15 pm 13:15 Sunny 42 5.5 34 1 73 73 S 17 28 30.19 1022 10 16 N/A
1:35 pm 13:35 Sunny 43 6 33 0.7 69 69 S 14 22 30.19 1022 10 16 N/A
1:55 pm 13:55 Sunny 44 6.5 33 0.3 65 65 SSE 14 22 30.16 1021 10 16 N/A
2:15 pm 14:15 Sunny 45 7 32 0.1 62 62 SSE 8 13 30.17 1022 10 16 N/A
2:35 pm 14:35 Sunny 45 7.1 32 undefined 61 61 SSE 9 15 30.15 1021 10 16 N/A
2:55 pm 14:55 Sunny 46 7.6 32 undefined 59 59 SSE 10 17 30.12 1020 10 16 N/A
3:15 pm 15:15 Sunny 46 7.8 32 undefined 58 58 SSE 12 19 30.11 1020 10 16 N/A
3:35 pm 15:35 Sunny 46 7.9 32 undefined 58 58 SE 10 17 30.11 1020 10 16 N/A
3:55 pm 15:55 Sunny 46 8 32 undefined 57 57 SE 9 15 30.11 1020 10 16 N/A
4:15 pm 16:15 Sunny 46 7.6 32 undefined 59 59 SE 9 15 30.11 1020 10 16 N/A
4:35 pm 16:35 Sunny 44 6.6 32 0.1 64 64 ESE 10 17 30.12 1020 10 16 N/A
4:55 pm 16:55 Sunny 42 5.5 32 undefined 68 68 ESE 13 20 30.11 1020 10 16 N/A
5:15 pm 17:15 Clear 40 4.2 32 undefined 74 74 SE 10 17 30.12 1020 10 16 N/A
5:35 pm 17:35 Clear 38 3.4 32 -0.2 78 78 ESE 10 17 30.11 1020 10 16 N/A
5:55 pm 17:55 Clear 37 2.7 31 -0.5 80 80 SE 9 15 30.12 1020 10 16 N/A
6:15 pm 18:15 Clear 36 2.2 31 -0.6 82 82 SE 9 15 30.11 1020 10 16 N/A
6:35 pm 18:35 Clear 36 2 31 -0.5 84 84 SE 9 15 30.10 1019 10 16 N/A
6:55 pm 18:55 Clear 36 2.3 32 -0.2 84 84 SE 7 11 30.09 1019 10 16 N/A
7:15 pm 19:15 Clear 35 1.8 31 -0.3 86 86 SE 13 20 30.09 1019 10 16 N/A
7:35 pm 19:35 Clear 35 1.8 32 -0.2 87 87 SSE 13 20 30.07 1018 10 16 N/A
7:55 pm 19:55 Clear 35 1.7 32 -0.1 88 88 SSE 14 22 30.06 1018 10 16 N/A
8:15 pm 20:15 Clear 34 1.1 31 -0.5 89 89 SSE 10 17 30.05 1018 10 16 N/A
8:35 pm 20:35 Clear 34 1.1 31 -0.5 89 89 SSE 8 13 30.05 1018 10 16 N/A
8:55 pm 20:55 Clear 36 2 32 undefined 87 87 SSE 10 17 30.05 1017 10 16 N/A
9:15 pm 21:15 Clear 36 2.2 32 undefined 86 86 SSE 10 17 30.04 1017 10 16 N/A
9:35 pm 21:35 Clear 35 1.8 32 -0.2 87 87 SSE 9 15 30.03 1017 10 16 N/A
9:55 pm 21:55 Clear 35 1.6 32 -0.2 88 88 SSE 8 13 30.02 1017 10 16 N/A
10:15 pm 22:15 Clear 34 1 31 -0.5 90 90 SSE 7 11 30.03 1017 10 16 N/A
10:35 pm 22:35 Clear 34 1 31 -0.5 90 90 SSE 8 13 30.01 1016 10 16 N/A
10:55 pm 22:55 Clear 34 1.1 31 -0.4 90 90 SSE 7 11 29.99 1016 10 16 N/A
11:15 pm 23:15 Clear 34 1.1 31 -0.3 91 91 SSE 9 15 29.98 1015 10 16 N/A
11:35 pm 23:35 Clear 34 1 31 -0.3 91 91 SSE 8 13 29.95 1014 10 16 N/A
11:55 pm 23:55 Clear 34 1 31 -0.5 90 90 S 8 13 29.94 1014 10 16 N/A

Powered by AerisWeather